Wetbulb
65.99 67.34 69.43 69.57 69.08 69.26 69.34 69.90 70.26 70.25 70.16 70.08 69.90 69.76 69.45 69.59 69.80 69.74 69.91 69.92 69.79 69.63 69.10 68.72 68.65 68.47 67.89 67.08 66.34 66.67 64.76 63.26
62.42 64.14 65.89 66.08 67.07 68.85 69.05 69.18 69.00 68.40 68.64 68.57 68.42 68.37 68.50 69.17 69.29 69.08 69.39 69.31 69.28 68.93 68.29 67.86 67.85 67.42 67.38 66.94 66.58 66.38 63.12 62.47
60.37 62.30 64.18 64.72 66.02 68.55 68.06 66.96 65.11 64.42 65.14 66.94 66.69 66.62 66.93 67.46 68.39 68.71 68.90 68.60 68.66 68.46 68.15 67.48 66.98 66.64 66.42 66.11 66.09 64.31 63.08 63.00
59.23 62.09 63.57 65.18 67.08 65.87 64.85 64.67 61.36 60.77 63.05 62.91 63.05 63.32 66.11 67.66 66.90 66.47 67.52 67.43 67.93 67.99 67.48 67.03 66.34 64.82 64.27 64.98 63.24 63.00 62.54 62.69
57.76 62.73 62.86 63.43 64.14 63.46 62.13 61.21 60.07 59.82 61.04 62.11 62.65 62.48 62.18 62.34 61.73 62.38 63.21 65.82 65.38 65.73 65.68 65.75 65.53 65.15 64.69 64.21 63.81 63.20 62.25 62.90
56.45 60.38 62.05 61.97 61.63 60.43 59.73 59.07 59.11 58.75 59.33 60.49 59.76 59.53 59.34 59.72 60.10 60.83 60.99 60.89 60.96 61.87 61.67 63.07 64.59 65.69 65.52 64.92 64.60 63.84 62.92 63.01
54.34 58.56 58.29 59.23 59.54 59.45 58.90 58.42 58.32 58.26 58.27 58.91 58.48 57.90 57.55 58.05 57.65 57.77 57.61 57.67 58.24 59.65 59.86 61.03 62.23 62.95 64.12 63.44 64.58 65.73 65.56 65.09
53.56 57.44 56.90 56.95 56.82 56.77 56.07 55.89 55.41 55.38 55.46 56.32 56.75 55.42 55.80 55.66 54.82 54.19 54.18 54.08 55.02 56.55 57.42 56.96 56.97 57.00 58.40 60.15 62.79 64.97 59.45 59.13
54.24 57.28 56.24 55.19 53.42 52.79 51.84 51.68 51.69 51.49 52.02 52.34 51.16 50.77 50.81 51.36 51.34 50.63 51.33 50.91 51.05 52.18 52.53 53.01 51.96 52.85 54.49 58.29 61.67 55.99 54.67 56.09
53.23 57.58 55.01 53.18 51.64 51.00 50.59 49.99 49.98 49.61 49.83 50.65 50.85 50.01 49.02 48.54 48.27 48.13 49.08 48.87 49.08 49.83 49.71 49.87 48.92 49.84 51.56 55.91 58.88 53.35 51.42 52.04
52.72 55.29 53.53 51.98 50.53 49.63 48.39 47.17 47.11 47.06 48.07 48.56 48.54 49.18 48.99 47.31 47.02 47.02 47.33 47.05 46.84 47.30 47.60 47.83 46.03 47.55 52.55 53.63 54.26 52.54 50.19 49.00
51.27 53.50 52.64 51.33 49.74 47.92 47.34 46.79 46.83 46.87 46.76 47.19 47.17 47.38 47.20 46.34 46.10 45.95 45.85 44.94 44.90 45.46 45.45 45.21 44.72 45.50 51.25 48.69 50.90 50.83 48.55 46.25
49.71 51.34 50.83 50.44 48.45 46.31 45.17 43.97 45.17 45.79 46.09 46.18 46.13 46.17 46.23 45.18 44.70 44.22 44.12 42.78 42.77 43.63 43.83 42.67 42.12 43.97 46.52 47.57 49.36 48.91 47.33 45.29
47.04 48.25 48.75 48.47 47.51 46.80 46.36 44.06 43.72 43.53 44.22 44.72 45.10 44.95 44.47 44.62 43.12 42.18 41.96 41.34 41.31 41.47 41.45 40.13 41.25 42.66 42.58 42.33 39.85 42.17 43.37 44.71
45.20 45.70 46.17 46.45 46.94 46.52 44.73 43.31 42.34 41.99 42.12 42.60 43.51 44.06 43.68 43.02 42.67 41.59 40.70 40.47 39.96 40.11 40.05 39.52 38.00 40.45 41.49 40.50 36.33 36.14 39.27 43.48
44.17 44.71 44.78 44.96 45.44 44.75 42.90 40.79 39.94 40.87 40.63 41.39 41.98 42.79 42.61 42.01 41.55 40.76 39.91 39.56 38.64 39.77 39.85 38.98 38.88 37.60 39.20 41.39 41.16 39.29 35.78 33.67
43.04 43.95 43.50 43.47 43.76 43.92 43.06 41.35 41.28 41.05 40.33 40.20 40.46 41.21 41.81 41.80 40.74 39.74 38.05 37.82 37.31 37.68 37.74 37.79 38.34 38.16 38.02 38.38 38.47 39.44 39.01 37.31
40.79 42.15 42.17 42.82 43.00 42.26 41.89 40.33 39.59 38.89 38.81 38.69 39.12 39.85 40.14 40.44 40.94 39.16 37.69 36.55 36.07 35.97 36.46 36.77 36.75 36.62 37.47 38.24 37.93 37.10 37.10 36.76
40.33 41.47 40.97 41.63 41.22 40.79 40.32 39.89 39.55 38.83 38.12 37.64 38.14 38.38 38.70 39.25 39.53 38.78 37.44 36.54 36.19 35.69 35.45 35.22 35.53 35.27 35.57 36.59 37.77 38.07 38.94 38.40
40.48 40.98 40.74 41.05 40.65 40.13 40.43 39.96 39.29 39.34 38.78 38.58 38.34 38.46 38.68 39.15 39.50 39.01 37.67 37.32 36.15 35.35 34.94 35.47 34.86 35.08 34.82 35.57 36.78 37.82 38.39 37.72
MSLP
1018.24 1018.10 1017.91 1017.82 1017.94 1018.20 1018.48 1018.48 1018.46 1018.49 1018.56 1018.60 1018.61 1018.62 1018.59 1018.63 1018.75 1018.79 1018.78 1018.73 1018.69 1018.68 1018.73 1018.78 1018.80 1018.78 1018.77 1018.79 1018.77 1018.70 1018.64 1018.50
1018.66 1018.34 1018.21 1018.23 1018.27 1018.40 1018.67 1018.83 1018.88 1018.97 1018.89 1018.81 1018.72 1018.62 1018.62 1018.69 1018.64 1018.68 1018.69 1018.70 1018.73 1018.73 1018.72 1018.68 1018.63 1018.64 1018.63 1018.57 1018.52 1018.44 1018.49 1018.46
1019.01 1018.69 1018.55 1018.65 1018.68 1018.77 1018.99 1019.25 1019.26 1019.35 1019.31 1019.19 1019.04 1018.95 1018.82 1018.72 1018.77 1018.74 1018.75 1018.77 1018.76 1018.73 1018.70 1018.65 1018.58 1018.49 1018.41 1018.31 1018.24 1018.25 1018.19 1018.17
1019.38 1019.03 1018.89 1018.90 1019.02 1019.30 1019.49 1019.75 1019.76 1019.81 1019.67 1019.72 1019.58 1019.39 1019.13 1019.01 1019.07 1019.04 1019.02 1018.98 1018.92 1018.85 1018.78 1018.70 1018.57 1018.49 1018.38 1018.28 1018.19 1018.11 1018.10 1018.00
1019.83 1019.37 1019.33 1019.32 1019.55 1019.86 1020.15 1020.34 1020.32 1020.29 1020.18 1020.07 1019.97 1019.80 1019.69 1019.55 1019.62 1019.54 1019.49 1019.26 1019.33 1019.28 1019.11 1018.93 1018.80 1018.62 1018.33 1018.14 1018.01 1017.93 1017.93 1017.81
1020.17 1019.86 1019.80 1019.84 1019.98 1020.26 1020.56 1020.70 1020.74 1020.67 1020.71 1020.57 1020.50 1020.36 1020.29 1020.14 1020.07 1020.02 1019.97 1019.95 1019.79 1019.71 1019.61 1019.35 1019.06 1018.74 1018.41 1018.13 1018.03 1018.00 1017.96 1017.91
1020.69 1020.37 1020.55 1020.50 1020.42 1020.71 1020.86 1021.12 1021.32 1021.28 1021.18 1021.10 1020.90 1020.80 1020.66 1020.77 1020.68 1020.58 1020.51 1020.32 1020.16 1019.97 1019.87 1019.51 1019.22 1018.97 1018.68 1018.55 1018.35 1018.15 1018.03 1018.11
1021.16 1021.02 1021.19 1021.28 1021.09 1021.16 1021.44 1021.70 1022.10 1022.10 1022.00 1021.71 1021.61 1021.47 1021.27 1021.20 1021.32 1021.37 1021.10 1020.89 1020.67 1020.38 1020.19 1019.97 1019.87 1019.67 1019.20 1018.99 1018.65 1018.52 1018.92 1018.95
1021.59 1021.24 1021.70 1022.05 1022.07 1022.00 1022.17 1022.36 1022.63 1022.78 1022.82 1022.56 1022.47 1022.30 1022.27 1022.15 1021.94 1022.00 1021.92 1021.60 1021.38 1021.02 1020.82 1020.56 1020.50 1020.40 1020.02 1019.57 1019.16 1019.65 1019.77 1019.83
1021.47 1021.17 1021.91 1022.49 1022.74 1022.89 1022.91 1023.03 1023.18 1023.32 1023.37 1023.17 1023.05 1022.89 1022.75 1022.70 1022.62 1022.55 1022.34 1022.08 1021.88 1021.59 1021.51 1021.38 1021.31 1020.94 1020.64 1020.38 1020.04 1020.49 1020.75 1020.64
1022.34 1021.99 1022.25 1022.85 1023.25 1023.54 1023.72 1023.75 1024.02 1023.96 1023.76 1023.76 1023.62 1023.48 1023.38 1023.26 1023.29 1023.19 1022.90 1022.60 1022.39 1022.32 1022.19 1022.06 1022.02 1021.72 1021.31 1021.12 1020.96 1021.33 1021.61 1021.70
1022.69 1022.48 1022.39 1023.19 1023.62 1024.06 1024.22 1024.27 1024.57 1024.52 1024.37 1024.18 1024.12 1024.13 1024.00 1023.87 1023.82 1023.66 1023.40 1023.13 1022.99 1022.83 1022.89 1022.79 1022.76 1022.42 1022.10 1022.07 1021.86 1022.08 1022.29 1022.55
1022.54 1022.19 1022.75 1023.44 1024.00 1024.37 1024.78 1025.11 1025.33 1025.23 1024.93 1024.75 1024.54 1024.68 1024.58 1024.51 1024.50 1024.31 1024.15 1024.05 1024.17 1023.75 1023.59 1023.32 1023.25 1023.11 1022.63 1022.92 1022.68 1022.55 1022.73 1023.00
1022.44 1022.68 1023.28 1023.60 1024.02 1024.66 1025.08 1025.65 1025.98 1025.68 1025.50 1025.39 1025.25 1025.25 1025.22 1025.03 1025.13 1025.18 1025.04 1024.88 1024.81 1024.64 1024.31 1024.25 1024.33 1024.02 1023.80 1023.95 1023.73 1023.29 1023.33 1023.46
1023.13 1023.10 1023.52 1023.61 1024.22 1024.87 1025.30 1025.71 1026.01 1025.98 1025.92 1026.09 1026.10 1025.95 1025.71 1025.75 1025.82 1026.07 1025.88 1025.80 1025.87 1025.80 1025.44 1025.13 1025.40 1025.07 1024.77 1024.69 1024.86 1025.50 1024.87 1023.86
1023.35 1023.50 1024.02 1024.11 1024.49 1024.90 1025.42 1025.83 1026.25 1026.83 1026.70 1026.84 1026.95 1026.64 1026.20 1026.58 1026.55 1026.55 1026.75 1026.64 1026.52 1026.65 1026.45 1025.97 1025.99 1026.28 1025.98 1025.88 1026.03 1026.31 1026.58 1025.57
1023.95 1023.87 1024.31 1024.55 1025.01 1025.22 1025.73 1026.19 1026.61 1027.25 1027.40 1027.24 1027.43 1027.25 1027.02 1027.11 1027.07 1027.23 1027.12 1027.11 1027.41 1027.39 1027.14 1026.95 1026.89 1026.95 1026.88 1026.83 1026.62 1026.63 1026.82 1026.64
1024.25 1024.15 1024.58 1024.92 1025.43 1025.79 1026.08 1026.69 1027.13 1027.48 1027.88 1027.95 1027.93 1027.95 1027.74 1027.69 1027.67 1027.64 1027.45 1027.52 1027.75 1027.76 1027.89 1027.76 1027.63 1027.43 1027.41 1027.44 1027.20 1027.23 1027.15 1026.99
1024.76 1024.37 1024.95 1025.23 1025.70 1026.15 1026.48 1027.01 1027.10 1027.66 1028.12 1027.87 1028.17 1028.27 1028.48 1028.36 1028.17 1028.03 1028.00 1028.06 1028.06 1028.11 1028.17 1028.31 1028.17 1027.75 1027.85 1027.76 1027.61 1027.54 1027.37 1027.36
1024.51 1024.71 1025.18 1025.46 1025.69 1026.36 1026.92 1027.31 1027.48 1027.63 1027.74 1027.94 1028.32 1028.51 1028.63 1028.63 1028.30 1028.30 1028.59 1028.58 1028.57 1028.56 1028.28 1028.25 1028.18 1028.08 1028.10 1028.03 1027.90 1027.74 1027.58 1027.67
Wind_Speed
4 4 5 7 7 7 6 7 7 8 8 7 7 6 6 6 7 7 6 6 5 5 5 6 7 8 8 8 6 5 3 3
5 4 4 4 5 7 7 8 11 12 10 8 5 6 7 5 5 4 4 4 5 6 6 6 7 8 8 8 7 7 3 4
5 5 4 4 5 7 9 13 13 12 10 11 6 4 6 5 7 6 5 6 7 7 8 8 7 6 7 8 8 3 4 2
5 5 6 6 6 6 7 7 6 6 7 7 5 6 7 8 10 14 12 11 10 10 8 8 6 3 3 5 3 4 3 3
6 5 6 7 6 5 4 4 3 5 8 7 5 5 5 5 4 4 5 9 5 6 6 4 5 4 3 3 4 3 2 3
5 6 6 7 5 5 5 5 4 5 6 7 5 4 5 5 5 6 5 5 6 5 4 5 5 5 5 5 5 4 3 2
6 6 6 6 8 6 6 6 5 6 6 7 5 5 5 5 5 5 5 5 5 5 5 5 6 6 6 7 7 6 7 6
5 8 7 7 8 9 7 6 6 6 6 7 8 6 5 5 6 6 6 6 5 5 5 6 6 7 7 8 7 9 12 11
5 9 8 9 9 8 7 6 6 6 6 9 9 7 6 5 5 5 5 5 6 5 6 5 5 6 7 7 8 12 11 12
6 9 10 9 8 7 6 6 6 6 5 6 8 8 7 6 5 6 5 4 5 5 6 4 5 5 4 6 8 10 12 12
6 10 10 10 9 7 7 7 6 4 5 5 7 8 8 6 6 6 5 5 6 4 5 4 6 5 4 6 8 9 10 11
7 8 11 8 6 6 6 7 6 5 5 6 7 7 8 6 6 7 7 7 7 6 6 7 6 4 5 7 6 7 7 8
7 12 8 7 3 5 5 4 3 5 6 7 8 7 8 7 6 7 8 9 7 8 4 7 10 8 3 3 3 7 7 6
8 9 7 6 4 3 3 3 3 3 4 7 8 8 7 8 8 8 8 7 10 9 7 4 5 9 4 2 4 3 4 6
5 7 6 7 8 7 5 4 3 3 4 4 7 7 8 8 8 7 7 6 7 7 7 8 5 5 10 3 4 3 5 2
6 7 7 7 5 5 5 4 5 3 3 4 5 7 8 7 7 7 6 5 7 6 6 5 4 5 3 6 6 3 2 5
5 7 7 6 6 7 6 7 4 3 2 6 6 5 6 6 6 6 7 5 5 6 6 7 5 4 3 2 3 2 2 0
6 8 7 7 7 6 9 9 6 5 3 4 4 3 4 6 6 5 6 6 6 5 5 6 5 5 3 4 4 2 2 3
6 8 7 7 8 7 7 7 7 7 5 4 4 3 3 4 4 6 5 6 6 5 5 5 4 4 4 3 2 2 1 1
7 8 8 7 8 7 6 6 4 4 4 4 3 3 2 2 5 6 6 6 5 5 4 4 5 5 7 5 2 3 3 3
Wind_Direction
46 57 73 79 80 76 63 67 64 60 51 42 33 17 3 2 5 7 6 4 4 2 354 343 334 332 333 333 328 326 320 304
30 46 69 76 77 87 78 62 49 39 30 14 17 7 352 350 346 341 344 345 349 348 343 337 333 333 330 326 323 327 311 293
19 38 71 68 75 65 59 61 53 40 29 31 24 18 12 4 1 343 334 342 336 341 337 332 324 323 316 316 327 309 310 291
14 42 58 59 83 57 53 58 47 41 43 27 17 26 33 44 42 36 40 32 22 5 356 346 340 323 311 310 304 302 305 302
20 40 63 69 68 63 48 44 32 39 37 33 22 30 24 36 31 21 12 20 23 8 3 11 355 346 338 322 306 306 304 307
39 38 63 66 76 76 70 57 41 46 42 30 27 26 29 30 32 23 25 14 13 10 358 347 351 348 344 338 345 337 341 342
31 57 54 65 76 70 62 53 39 41 42 37 37 34 43 34 31 29 25 12 13 0 356 2 359 350 358 1 4 10 25 41
46 66 59 68 72 70 65 55 40 38 32 31 34 37 32 44 37 23 22 15 8 14 6 16 359 354 5 2 14 43 54 50
81 85 62 63 66 69 63 58 55 47 32 33 39 37 35 32 46 34 13 12 6 18 12 18 15 10 4 10 49 58 53 47
72 97 85 73 63 60 63 54 55 48 36 38 36 41 36 45 43 31 7 17 20 28 19 9 16 13 2 36 64 64 53 44
113 108 97 91 80 73 63 57 51 37 45 38 29 34 32 45 38 25 13 31 31 19 26 20 26 2 44 59 64 62 54 49
124 110 101 98 91 81 74 67 47 39 41 44 36 33 34 41 40 34 30 37 31 21 29 22 28 359 68 66 73 70 64 50
119 116 113 112 102 93 68 65 52 47 46 39 43 38 38 39 44 39 35 43 28 23 359 33 30 6 49 15 41 77 74 59
110 113 124 108 90 98 105 102 57 74 50 45 43 45 39 55 46 43 35 42 35 27 25 17 33 26 44 67 20 335 29 60
100 108 106 102 112 117 106 90 59 41 33 37 29 43 47 49 50 46 42 43 47 31 25 36 33 3 31 77 51 0 337 340
100 102 109 106 113 108 103 104 105 32 57 61 38 37 50 46 52 52 49 44 45 37 27 41 47 34 359 32 49 99 1 327
114 110 102 103 100 106 106 99 91 92 70 73 54 41 50 54 57 54 55 51 45 46 38 40 40 63 43 3 34 49 37 158
126 115 105 110 111 112 119 125 129 103 80 88 63 48 42 46 58 63 60 59 52 43 39 45 46 51 47 43 57 44 348 22
140 123 118 121 120 117 122 134 121 126 137 108 92 54 33 41 60 51 51 53 47 47 51 47 33 53 34 31 38 48 31 355
139 133 132 131 119 122 125 131 131 120 113 109 95 98 88 65 75 72 59 51 44 42 45 40 37 40 34 25 15 35 34 31